Time,TemperatureF,DewpointF,PressureIn,WindDirection,WindDirectionDegrees,WindSpeedMPH,WindSpeedGustMPH,Humidity,HourlyPrecipIn,Conditions,Clouds,dailyrainin,SoftwareType,DateUTC
2013-04-05 00:02:00,66.0,64.0,29.93,WNW,290,2.0,5.0,93,0.48,,,-99.99,,2013-04-05 04:02:00,
2013-04-05 00:13:00,66.0,64.0,29.93,WNW,290,2.0,5.0,93,0.48,,,-99.99,,2013-04-05 04:13:00,
2013-04-05 00:23:00,66.0,64.0,29.94,SW,236,4.0,6.0,92,0.48,,,-99.99,,2013-04-05 04:23:00,
2013-04-05 00:33:00,66.0,64.0,29.94,SW,236,4.0,6.0,92,0.48,,,-99.99,,2013-04-05 04:33:00,
2013-04-05 00:42:00,66.0,64.0,29.94,SW,236,4.0,6.0,92,0.48,,,-99.99,,2013-04-05 04:42:00,
2013-04-05 00:52:00,66.0,66.0,29.91,SSW,194,9.0,13.0,100,0.48,,,-99.99,,2013-04-05 04:52:00,
2013-04-05 01:02:00,66.0,66.0,29.92,SSW,197,9.0,14.0,100,0.48,,,-99.99,,2013-04-05 05:02:00,
2013-04-05 01:13:00,66.0,66.0,29.92,SSW,197,9.0,14.0,100,0.48,,,-99.99,,2013-04-05 05:13:00,
2013-04-05 01:22:00,66.0,66.0,29.90,South,190,11.0,21.0,100,0.48,,,-99.99,,2013-04-05 05:22:00,
2013-04-05 01:32:00,66.0,65.0,29.85,SSW,207,17.0,29.0,96,0.48,,,-99.99,,2013-04-05 05:32:00,
2013-04-05 01:42:00,66.0,65.0,29.85,SSW,207,17.0,29.0,96,0.48,,,-99.99,,2013-04-05 05:42:00,
2013-04-05 01:52:00,66.0,64.0,29.84,South,170,16.0,25.0,93,0.48,,,-99.99,,2013-04-05 05:52:00,
2013-04-05 02:02:00,66.0,62.0,29.87,SSW,203,21.0,33.0,86,0.48,,,-99.99,,2013-04-05 06:02:00,
2013-04-05 02:12:00,66.0,62.0,29.87,SSW,203,21.0,33.0,86,0.48,,,-99.99,,2013-04-05 06:12:00,
2013-04-05 02:22:00,66.0,61.0,29.88,SW,218,10.0,15.0,83,0.48,,,-99.99,,2013-04-05 06:22:00,
2013-04-05 02:32:00,66.0,62.0,29.90,WNW,290,10.0,14.0,86,0.48,,,-99.99,,2013-04-05 06:32:00,
2013-04-05 02:42:00,66.0,62.0,29.90,WNW,290,10.0,14.0,86,0.48,,,-99.99,,2013-04-05 06:42:00,
2013-04-05 02:52:00,66.0,60.0,29.89,WSW,253,6.0,8.0,82,0.48,,,-99.99,,2013-04-05 06:52:00,
2013-04-05 03:02:00,67.0,61.0,29.89,West,273,6.0,9.0,81,0.48,,,-99.99,,2013-04-05 07:02:00,
2013-04-05 03:12:00,67.0,61.0,29.89,West,273,6.0,9.0,81,0.48,,,-99.99,,2013-04-05 07:12:00,
2013-04-05 03:22:00,67.0,61.0,29.87,West,273,6.0,8.0,80,0.48,,,-99.99,,2013-04-05 07:22:00,
2013-04-05 03:32:00,67.0,60.0,29.88,WSW,252,9.0,13.0,77,0.48,,,-99.99,,2013-04-05 07:32:00,
2013-04-05 03:42:00,67.0,60.0,29.88,WSW,252,9.0,13.0,77,0.48,,,-99.99,,2013-04-05 07:42:00,
2013-04-05 03:53:00,66.0,60.0,29.86,West,278,4.0,5.0,81,0.48,,,-99.99,,2013-04-05 07:53:00,
2013-04-05 04:02:00,66.0,60.0,29.85,WNW,291,5.0,6.0,82,0.48,,,-99.99,,2013-04-05 08:02:00,
2013-04-05 04:13:00,66.0,60.0,29.85,WNW,291,5.0,6.0,82,0.48,,,-99.99,,2013-04-05 08:13:00,
2013-04-05 04:22:00,66.0,61.0,29.85,WNW,297,4.0,6.0,84,0.48,,,-99.99,,2013-04-05 08:22:00,
2013-04-05 04:32:00,66.0,63.0,29.85,West,280,6.0,8.0,90,0.48,,,-99.99,,2013-04-05 08:32:00,
2013-04-05 04:43:00,66.0,63.0,29.85,West,280,6.0,8.0,90,0.48,,,-99.99,,2013-04-05 08:43:00,
2013-04-05 04:52:00,66.0,62.0,29.84,WNW,284,5.0,7.0,88,0.48,,,-99.99,,2013-04-05 08:52:00,
2013-04-05 05:02:00,65.0,62.0,29.82,West,266,6.0,8.0,89,0.48,,,-99.99,,2013-04-05 09:02:00,
2013-04-05 05:12:00,65.0,62.0,29.82,West,266,6.0,8.0,89,0.48,,,-99.99,,2013-04-05 09:12:00,
2013-04-05 05:22:00,65.0,62.0,29.83,West,267,6.0,7.0,89,0.48,,,-99.99,,2013-04-05 09:22:00,
2013-04-05 05:33:00,65.0,62.0,29.83,West,260,6.0,7.0,91,0.48,,,-99.99,,2013-04-05 09:33:00,
2013-04-05 05:43:00,65.0,62.0,29.83,West,260,6.0,7.0,91,0.48,,,-99.99,,2013-04-05 09:43:00,
2013-04-05 05:52:00,65.0,63.0,29.83,WSW,253,5.0,6.0,94,0.48,,,-99.99,,2013-04-05 09:52:00,
2013-04-05 06:03:00,65.0,64.0,29.83,WSW,252,5.0,6.0,96,0.48,,,-99.99,,2013-04-05 10:03:00,
2013-04-05 06:13:00,65.0,64.0,29.83,WSW,252,5.0,6.0,96,0.48,,,-99.99,,2013-04-05 10:13:00,
2013-04-05 06:23:00,65.0,64.0,29.85,WSW,239,4.0,6.0,97,0.48,,,-99.99,,2013-04-05 10:23:00,
2013-04-05 06:33:00,65.0,64.0,29.85,SSW,210,6.0,7.0,97,0.48,,,-99.99,,2013-04-05 10:33:00,
2013-04-05 06:43:00,65.0,64.0,29.85,SSW,210,6.0,7.0,97,0.48,,,-99.99,,2013-04-05 10:43:00,
2013-04-05 06:53:00,65.0,64.0,29.85,WSW,240,6.0,7.0,97,0.48,,,-99.99,,2013-04-05 10:53:00,
2013-04-05 07:03:00,65.0,64.0,29.85,SW,236,5.0,6.0,96,0.48,,,-99.99,,2013-04-05 11:03:00,
2013-04-05 07:13:00,65.0,64.0,29.85,SW,236,5.0,6.0,96,0.48,,,-99.99,,2013-04-05 11:13:00,
2013-04-05 07:22:00,65.0,64.0,29.84,SW,233,4.0,4.0,97,0.48,,,-99.99,,2013-04-05 11:22:00,
2013-04-05 07:33:00,65.0,64.0,29.85,WSW,256,4.0,5.0,98,0.48,,,-99.99,,2013-04-05 11:33:00,
2013-04-05 07:42:00,65.0,64.0,29.85,WSW,256,4.0,5.0,98,0.48,,,-99.99,,2013-04-05 11:42:00,
2013-04-05 07:52:00,65.0,64.0,29.85,WSW,256,4.0,5.0,98,0.48,,,-99.99,,2013-04-05 11:52:00,
2013-04-05 08:02:00,65.0,65.0,29.86,SW,226,6.0,7.0,99,0.48,,,-99.99,,2013-04-05 12:02:00,
2013-04-05 08:12:00,65.0,65.0,29.86,SW,226,6.0,7.0,99,0.48,,,-99.99,,2013-04-05 12:12:00,
2013-04-05 08:22:00,65.0,64.0,29.86,SW,229,7.0,10.0,97,0.48,,,-99.99,,2013-04-05 12:22:00,
2013-04-05 08:32:00,66.0,65.0,29.88,WSW,250,8.0,10.0,96,0.48,,,-99.99,,2013-04-05 12:32:00,
2013-04-05 08:42:00,66.0,65.0,29.88,WSW,250,8.0,10.0,96,0.48,,,-99.99,,2013-04-05 12:42:00,
2013-04-05 08:52:00,66.0,64.0,29.88,WSW,250,9.0,12.0,92,0.48,,,-99.99,,2013-04-05 12:52:00,
2013-04-05 09:02:00,67.0,64.0,29.88,WSW,238,9.0,12.0,89,0.48,,,-99.99,,2013-04-05 13:02:00,
2013-04-05 09:12:00,67.0,64.0,29.88,WSW,238,9.0,12.0,89,0.48,,,-99.99,,2013-04-05 13:12:00,
2013-04-05 09:23:00,67.0,63.0,29.88,WSW,257,10.0,13.0,88,0.48,,,-99.99,,2013-04-05 13:23:00,
2013-04-05 09:32:00,67.0,63.0,29.88,WSW,253,10.0,15.0,87,0.48,,,-99.99,,2013-04-05 13:32:00,
2013-04-05 09:42:00,67.0,63.0,29.88,WSW,253,10.0,15.0,87,0.48,,,-99.99,,2013-04-05 13:42:00,
2013-04-05 09:52:00,68.0,64.0,29.89,WSW,253,12.0,15.0,87,0.48,,,-99.99,,2013-04-05 13:52:00,
2013-04-05 10:03:00,68.0,63.0,29.89,West,267,12.0,17.0,84,0.48,,,-99.99,,2013-04-05 14:03:00,
2013-04-05 10:12:00,68.0,63.0,29.89,West,267,12.0,17.0,84,0.48,,,-99.99,,2013-04-05 14:12:00,
2013-04-05 10:23:00,69.0,63.0,29.89,WSW,238,11.0,17.0,82,0.48,,,-99.99,,2013-04-05 14:23:00,
2013-04-05 10:37:00,69.0,63.0,29.89,WSW,240,9.0,13.0,82,0.48,,,-99.99,,2013-04-05 14:37:00,
2013-04-05 10:43:00,69.0,63.0,29.89,WSW,240,9.0,13.0,82,0.48,,,-99.99,,2013-04-05 14:43:00,
2013-04-05 10:52:00,69.0,63.0,29.89,SW,236,9.0,13.0,81,0.48,,,-99.99,,2013-04-05 14:52:00,
2013-04-05 11:02:00,71.0,64.0,29.89,WSW,245,11.0,15.0,78,0.48,,,-99.99,,2013-04-05 15:02:00,
2013-04-05 11:13:00,71.0,64.0,29.89,WSW,245,11.0,15.0,78,0.48,,,-99.99,,2013-04-05 15:13:00,
2013-04-05 11:23:00,71.0,63.0,29.90,WSW,242,12.0,16.0,77,0.48,,,-99.99,,2013-04-05 15:23:00,
2013-04-05 11:33:00,71.0,63.0,29.89,WSW,245,11.0,15.0,75,0.48,,,-99.99,,2013-04-05 15:33:00,
2013-04-05 11:43:00,71.0,63.0,29.89,WSW,245,11.0,15.0,75,0.48,,,-99.99,,2013-04-05 15:43:00,
2013-04-05 11:54:00,72.0,64.0,29.89,SW,233,11.0,14.0,75,0.48,,,-99.99,,2013-04-05 15:54:00,
2013-04-05 12:03:00,72.0,64.0,29.88,WSW,239,10.0,14.0,75,0.48,,,-99.99,,2013-04-05 16:03:00,
2013-04-05 12:13:00,72.0,64.0,29.88,WSW,239,10.0,14.0,75,0.48,,,-99.99,,2013-04-05 16:13:00,
2013-04-05 12:23:00,73.0,64.0,29.88,WSW,249,11.0,16.0,73,0.48,,,-99.99,,2013-04-05 16:23:00,
2013-04-05 12:33:00,72.0,64.0,29.87,WSW,238,12.0,16.0,75,0.48,,,-99.99,,2013-04-05 16:33:00,
2013-04-05 12:42:00,72.0,64.0,29.87,WSW,238,12.0,16.0,75,0.48,,,-99.99,,2013-04-05 16:42:00,
2013-04-05 12:52:00,73.0,65.0,29.86,WSW,246,13.0,17.0,75,0.48,,,-99.99,,2013-04-05 16:52:00,
2013-04-05 13:03:00,70.0,63.0,29.87,West,281,12.0,17.0,79,0.48,,,-99.99,,2013-04-05 17:03:00,
2013-04-05 13:13:00,70.0,63.0,29.87,West,281,12.0,17.0,79,0.48,,,-99.99,,2013-04-05 17:13:00,
2013-04-05 13:23:00,72.0,62.0,29.86,NW,314,10.0,16.0,71,0.48,,,-99.99,,2013-04-05 17:23:00,
2013-04-05 13:32:00,73.0,64.0,29.86,NW,305,14.0,22.0,73,0.48,,,-99.99,,2013-04-05 17:32:00,
2013-04-05 13:45:00,73.0,64.0,29.86,NW,305,14.0,22.0,73,0.48,,,-99.99,,2013-04-05 17:45:00,
2013-04-05 13:52:00,73.0,65.0,29.86,NW,316,13.0,19.0,75,0.48,,,-99.99,,2013-04-05 17:52:00,
2013-04-05 14:02:00,73.0,63.0,29.85,NNW,335,11.0,18.0,72,0.48,,,-99.99,,2013-04-05 18:02:00,
2013-04-05 14:13:00,73.0,63.0,29.85,NNW,335,11.0,18.0,72,0.48,,,-99.99,,2013-04-05 18:13:00,
2013-04-05 14:23:00,73.0,62.0,29.85,WNW,297,15.0,22.0,69,0.48,,,-99.99,,2013-04-05 18:23:00,
2013-04-05 14:33:00,73.0,62.0,29.85,NW,319,13.0,19.0,68,0.48,,,-99.99,,2013-04-05 18:33:00,
2013-04-05 14:43:00,73.0,62.0,29.85,NW,319,13.0,19.0,68,0.48,,,-99.99,,2013-04-05 18:43:00,
2013-04-05 14:53:00,72.0,61.0,29.85,WNW,290,15.0,21.0,69,0.48,,,-99.99,,2013-04-05 18:53:00,
2013-04-05 15:00:00,73.0,61.0,29.85,NW,308,11.0,18.0,66,0.48,,,-99.99,,2013-04-05 19:00:00,
2013-04-05 15:02:00,72.0,61.0,29.85,WNW,294,14.0,21.0,68,0.48,,,-99.99,,2013-04-05 19:02:00,
2013-04-05 15:13:00,72.0,61.0,29.85,WNW,294,14.0,21.0,68,0.48,,,-99.99,,2013-04-05 19:13:00,
2013-04-05 15:23:00,73.0,61.0,29.85,NW,308,11.0,18.0,66,0.48,,,-99.99,,2013-04-05 19:23:00,
2013-04-05 15:33:00,73.0,61.0,29.85,NW,308,11.0,18.0,66,0.48,,,-99.99,,2013-04-05 19:33:00,
2013-04-05 15:42:00,73.0,61.0,29.85,NW,308,11.0,18.0,66,0.48,,,-99.99,,2013-04-05 19:42:00,
2013-04-05 15:53:00,73.0,61.0,29.85,NW,308,11.0,18.0,66,0.48,,,-99.99,,2013-04-05 19:53:00,
2013-04-05 16:53:00,74.0,58.0,29.83,West,281,12.0,19.0,57,0.48,,,-99.99,,2013-04-05 20:53:00,
2013-04-05 17:03:00,73.0,58.0,29.83,West,267,11.0,14.0,59,0.48,,,-99.99,,2013-04-05 21:03:00,
2013-04-05 17:13:00,73.0,58.0,29.83,West,267,11.0,14.0,59,0.48,,,-99.99,,2013-04-05 21:13:00,
2013-04-05 17:23:00,74.0,58.0,29.83,West,259,11.0,17.0,57,0.48,,,-99.99,,2013-04-05 21:23:00,
2013-04-05 17:33:00,74.0,56.0,29.83,WNW,285,11.0,17.0,54,0.48,,,-99.99,,2013-04-05 21:33:00,
2013-04-05 17:43:00,74.0,56.0,29.83,WNW,285,11.0,17.0,54,0.48,,,-99.99,,2013-04-05 21:43:00,
2013-04-05 17:53:00,73.0,55.0,29.83,WNW,294,12.0,16.0,54,0.48,,,-99.99,,2013-04-05 21:53:00,
2013-04-05 18:03:00,74.0,55.0,29.83,WNW,298,12.0,16.0,51,0.48,,,-99.99,,2013-04-05 22:03:00,
2013-04-05 18:13:00,74.0,55.0,29.83,WNW,298,12.0,16.0,51,0.48,,,-99.99,,2013-04-05 22:13:00,
2013-04-05 18:23:00,74.0,55.0,29.83,WNW,285,12.0,16.0,51,0.48,,,-99.99,,2013-04-05 22:23:00,
2013-04-05 18:33:00,74.0,56.0,29.83,West,263,11.0,14.0,53,0.48,,,-99.99,,2013-04-05 22:33:00,
2013-04-05 18:43:00,74.0,56.0,29.83,West,263,11.0,14.0,53,0.48,,,-99.99,,2013-04-05 22:43:00,
2013-04-05 18:52:00,74.0,56.0,29.83,NW,304,7.0,11.0,53,0.48,,,-99.99,,2013-04-05 22:52:00,
2013-04-05 19:03:00,73.0,55.0,29.83,WNW,300,9.0,12.0,53,0.48,,,-99.99,,2013-04-05 23:03:00,
2013-04-05 19:12:00,73.0,55.0,29.83,WNW,300,9.0,12.0,53,0.48,,,-99.99,,2013-04-05 23:12:00,
2013-04-05 19:22:00,71.0,55.0,29.84,WNW,288,13.0,20.0,57,0.48,,,-99.99,,2013-04-05 23:22:00,
2013-04-05 19:32:00,70.0,55.0,29.84,NW,304,11.0,16.0,60,0.48,,,-99.99,,2013-04-05 23:32:00,
2013-04-05 19:42:00,70.0,55.0,29.84,NW,304,11.0,16.0,60,0.48,,,-99.99,,2013-04-05 23:42:00,
2013-04-05 19:53:00,69.0,55.0,29.85,WNW,294,9.0,14.0,62,0.48,,,-99.99,,2013-04-05 23:53:00,
2013-04-05 20:02:00,69.0,55.0,29.86,NW,309,9.0,13.0,62,0.48,,,-99.99,,2013-04-06 00:02:00,
2013-04-05 20:13:00,69.0,55.0,29.86,NW,309,9.0,13.0,62,0.48,,,-99.99,,2013-04-06 00:13:00,
2013-04-05 20:23:00,68.0,56.0,29.87,WNW,294,10.0,17.0,65,0.48,,,-99.99,,2013-04-06 00:23:00,
2013-04-05 20:33:00,67.0,55.0,29.87,WNW,297,9.0,12.0,65,0.48,,,-99.99,,2013-04-06 00:33:00,
2013-04-05 20:42:00,67.0,55.0,29.87,WNW,297,9.0,12.0,65,0.48,,,-99.99,,2013-04-06 00:42:00,
2013-04-05 20:52:00,66.0,55.0,29.88,NW,307,9.0,12.0,68,0.48,,,-99.99,,2013-04-06 00:52:00,
2013-04-05 21:02:00,66.0,56.0,29.90,NW,316,11.0,16.0,71,0.48,,,-99.99,,2013-04-06 01:02:00,
2013-04-05 21:13:00,66.0,57.0,29.91,NNW,328,11.0,17.0,73,0.48,,,-99.99,,2013-04-06 01:13:00,
2013-04-05 21:22:00,66.0,57.0,29.91,NNW,328,11.0,17.0,73,0.48,,,-99.99,,2013-04-06 01:22:00,
2013-04-05 21:33:00,65.0,58.0,29.91,NNW,347,6.0,13.0,77,0.48,,,-99.99,,2013-04-06 01:33:00,
2013-04-05 21:43:00,65.0,58.0,29.91,NNW,347,6.0,13.0,77,0.48,,,-99.99,,2013-04-06 01:43:00,
2013-04-05 21:52:00,65.0,58.0,29.93,North,359,5.0,10.0,78,0.48,,,-99.99,,2013-04-06 01:52:00,
2013-04-05 22:02:00,65.0,58.0,29.93,North,359,5.0,10.0,78,0.48,,,-99.99,,2013-04-06 02:02:00,
2013-04-05 22:12:00,65.0,58.0,29.93,North,359,5.0,10.0,78,0.48,,,-99.99,,2013-04-06 02:12:00,
2013-04-05 22:22:00,64.0,57.0,29.94,North,349,10.0,17.0,78,0.48,,,-99.99,,2013-04-06 02:22:00,
2013-04-05 22:32:00,64.0,57.0,29.95,NNW,346,7.0,12.0,78,0.48,,,-99.99,,2013-04-06 02:32:00,
2013-04-05 22:42:00,64.0,57.0,29.95,NNW,346,7.0,12.0,78,0.48,,,-99.99,,2013-04-06 02:42:00,
2013-04-05 22:52:00,63.0,56.0,29.95,NNW,343,7.0,12.0,78,0.48,,,-99.99,,2013-04-06 02:52:00,
2013-04-05 23:03:00,62.0,56.0,29.96,North,350,9.0,19.0,80,0.48,,,-99.99,,2013-04-06 03:03:00,
2013-04-05 23:13:00,62.0,56.0,29.96,North,350,9.0,19.0,80,0.48,,,-99.99,,2013-04-06 03:13:00,
2013-04-05 23:22:00,61.0,54.0,29.97,NE,34,6.0,10.0,79,0.48,,,-99.99,,2013-04-06 03:22:00,
2013-04-05 23:34:00,61.0,55.0,29.97,North,359,7.0,14.0,80,0.48,,,-99.99,,2013-04-06 03:34:00,
2013-04-05 23:43:00,61.0,55.0,29.97,North,359,7.0,14.0,80,0.48,,,-99.99,,2013-04-06 03:43:00,
2013-04-05 23:54:00,61.0,55.0,29.97,North,357,7.0,15.0,80,0.48,,,-99.99,,2013-04-06 03:54:00,